Time,TemperatureF,DewpointF,PressureIn,WindDirection,WindDirectionDegrees,WindSpeedMPH,WindSpeedGustMPH,Humidity,HourlyPrecipIn,Conditions,Clouds,dailyrainin,SoftwareType,DateUTC
2013-03-01 00:01:00,50.0,49.0,30.38,NW,319,0.0,1.0,98,0.01,,,0.31,,2013-03-01 08:01:00,
2013-03-01 00:11:00,50.0,49.0,30.38,NW,319,0.0,1.0,98,0.01,,,0.31,,2013-03-01 08:11:00,
2013-03-01 00:21:00,50.0,49.0,30.39,SW,215,1.0,5.0,98,0.01,,,0.28,,2013-03-01 08:21:00,
2013-03-01 00:31:00,50.0,49.0,30.39,South,189,0.0,3.0,98,0.01,,,0.28,,2013-03-01 08:31:00,
2013-03-01 00:42:00,50.0,49.0,30.39,South,189,0.0,3.0,98,0.01,,,0.28,,2013-03-01 08:42:00,
2013-03-01 00:52:00,50.0,49.0,30.39,ENE,72,0.0,4.0,98,0.02,,,0.28,,2013-03-01 08:52:00,
2013-03-01 01:01:00,50.0,49.0,30.40,SE,129,0.0,5.0,98,0.02,,,0.30,,2013-03-01 09:01:00,
2013-03-01 01:11:00,50.0,49.0,30.40,SE,129,0.0,5.0,98,0.02,,,0.30,,2013-03-01 09:11:00,
2013-03-01 01:21:00,50.0,49.0,30.39,SW,219,0.0,2.0,98,0.02,,,0.28,,2013-03-01 09:21:00,
2013-03-01 01:31:00,50.0,50.0,30.40,SSW,210,0.0,2.0,99,0.02,,,0.28,,2013-03-01 09:31:00,
2013-03-01 01:41:00,50.0,50.0,30.40,SSW,210,0.0,2.0,99,0.02,,,0.28,,2013-03-01 09:41:00,
2013-03-01 01:51:00,50.0,49.0,30.40,SW,220,0.0,4.0,98,0.01,,,0.28,,2013-03-01 09:51:00,
2013-03-01 02:01:00,50.0,49.0,30.40,South,185,0.0,5.0,98,0.00,,,0.28,,2013-03-01 10:01:00,
2013-03-01 02:11:00,50.0,49.0,30.40,South,185,0.0,5.0,98,0.00,,,0.28,,2013-03-01 10:11:00,
2013-03-01 02:21:00,50.0,50.0,30.40,SW,221,0.0,3.0,99,0.01,,,0.26,,2013-03-01 10:21:00,
2013-03-01 02:31:00,50.0,50.0,30.40,NE,51,0.0,4.0,99,0.01,,,0.26,,2013-03-01 10:31:00,
2013-03-01 02:41:00,50.0,50.0,30.40,NE,51,0.0,4.0,99,0.01,,,0.26,,2013-03-01 10:41:00,
2013-03-01 02:51:00,50.0,50.0,30.40,NE,51,0.0,4.0,99,0.01,,,0.26,,2013-03-01 10:51:00,
2013-03-01 03:01:00,50.0,50.0,30.40,SW,224,0.0,2.0,99,0.01,,,0.26,,2013-03-01 11:01:00,
2013-03-01 03:11:00,50.0,50.0,30.40,SW,224,0.0,2.0,99,0.01,,,0.26,,2013-03-01 11:11:00,
2013-03-01 03:22:00,49.0,49.0,30.40,ESE,110,0.0,3.0,99,0.02,,,0.27,,2013-03-01 11:22:00,
2013-03-01 03:32:00,49.0,49.0,30.40,NE,53,0.0,3.0,99,0.01,,,0.25,,2013-03-01 11:32:00,
2013-03-01 03:41:00,49.0,49.0,30.40,NE,53,0.0,3.0,99,0.01,,,0.25,,2013-03-01 11:41:00,
2013-03-01 03:52:00,49.0,49.0,30.40,West,260,0.0,0.0,99,0.01,,,0.25,,2013-03-01 11:52:00,
2013-03-01 04:01:00,49.0,49.0,30.40,SE,136,0.0,3.0,99,0.01,,,0.25,,2013-03-01 12:01:00,
2013-03-01 04:11:00,49.0,49.0,30.40,SE,136,0.0,3.0,99,0.01,,,0.25,,2013-03-01 12:11:00,
2013-03-01 04:21:00,49.0,49.0,30.40,SW,221,0.0,1.0,99,0.00,,,0.25,,2013-03-01 12:21:00,
2013-03-01 04:32:00,49.0,49.0,30.39,SW,234,0.0,3.0,99,0.00,,,0.23,,2013-03-01 12:32:00,
2013-03-01 04:42:00,49.0,49.0,30.39,SW,234,0.0,3.0,99,0.00,,,0.23,,2013-03-01 12:42:00,
2013-03-01 04:52:00,49.0,49.0,30.39,North,5,0.0,1.0,99,0.00,,,0.23,,2013-03-01 12:52:00,
2013-03-01 05:01:00,49.0,49.0,30.39,WSW,243,0.0,1.0,99,0.00,,,0.23,,2013-03-01 13:01:00,
2013-03-01 05:11:00,49.0,49.0,30.39,WSW,243,0.0,1.0,99,0.00,,,0.23,,2013-03-01 13:11:00,
2013-03-01 05:21:00,49.0,49.0,30.39,NNE,31,0.0,1.0,99,0.00,,,0.23,,2013-03-01 13:21:00,
2013-03-01 05:32:00,49.0,49.0,30.39,SE,136,0.0,2.0,99,0.00,,,0.22,,2013-03-01 13:32:00,
2013-03-01 05:41:00,49.0,49.0,30.39,SE,136,0.0,2.0,99,0.00,,,0.22,,2013-03-01 13:41:00,
2013-03-01 05:51:00,49.0,49.0,30.39,NNE,33,0.0,4.0,99,0.00,,,0.22,,2013-03-01 13:51:00,
2013-03-01 06:01:00,49.0,49.0,30.39,NE,39,0.0,1.0,99,0.00,,,0.22,,2013-03-01 14:01:00,
2013-03-01 06:11:00,49.0,49.0,30.39,NE,39,0.0,1.0,99,0.00,,,0.22,,2013-03-01 14:11:00,
2013-03-01 06:21:00,49.0,49.0,30.40,ENE,70,0.0,2.0,99,0.00,,,0.22,,2013-03-01 14:21:00,
2013-03-01 06:32:00,49.0,49.0,30.40,East,82,0.0,3.0,99,0.00,,,0.19,,2013-03-01 14:32:00,
2013-03-01 06:41:00,49.0,49.0,30.40,East,82,0.0,3.0,99,0.00,,,0.19,,2013-03-01 14:41:00,
2013-03-01 06:52:00,49.0,49.0,30.40,NE,44,0.0,2.0,99,0.00,,,0.19,,2013-03-01 14:52:00,
2013-03-01 07:01:00,49.0,49.0,30.40,SSW,207,0.0,1.0,99,0.00,,,0.19,,2013-03-01 15:01:00,
2013-03-01 07:11:00,49.0,49.0,30.40,West,269,0.0,4.0,99,0.00,,,0.19,,2013-03-01 15:11:00,
2013-03-01 07:21:00,49.0,49.0,30.40,West,269,0.0,4.0,99,0.00,,,0.19,,2013-03-01 15:21:00,
2013-03-01 07:31:00,49.0,49.0,30.41,SW,234,0.0,2.0,99,0.00,,,0.17,,2013-03-01 15:31:00,
2013-03-01 07:42:00,49.0,49.0,30.41,SW,234,0.0,2.0,99,0.00,,,0.17,,2013-03-01 15:42:00,
2013-03-01 07:52:00,49.0,48.0,30.41,SW,215,0.0,6.0,98,0.01,,,0.18,,2013-03-01 15:52:00,
2013-03-01 08:01:00,49.0,48.0,30.41,SE,142,0.0,4.0,98,0.01,,,0.18,,2013-03-01 16:01:00,
2013-03-01 08:11:00,49.0,48.0,30.41,SE,142,0.0,4.0,98,0.01,,,0.18,,2013-03-01 16:11:00,
2013-03-01 08:21:00,49.0,48.0,30.41,WSW,239,0.0,6.0,98,0.01,,,0.18,,2013-03-01 16:21:00,
2013-03-01 08:31:00,49.0,48.0,30.41,SW,227,0.0,3.0,98,0.01,,,0.18,,2013-03-01 16:31:00,
2013-03-01 08:41:00,49.0,48.0,30.41,SW,227,0.0,3.0,98,0.01,,,0.18,,2013-03-01 16:41:00,
2013-03-01 08:51:00,49.0,48.0,30.42,WSW,252,0.0,2.0,98,0.00,,,0.18,,2013-03-01 16:51:00,
2013-03-01 09:01:00,49.0,48.0,30.41,North,1,0.0,2.0,98,0.00,,,0.18,,2013-03-01 17:01:00,
2013-03-01 09:11:00,49.0,48.0,30.41,North,1,0.0,2.0,98,0.00,,,0.18,,2013-03-01 17:11:00,
2013-03-01 09:21:00,49.0,48.0,30.42,SW,230,0.0,2.0,97,0.00,,,0.18,,2013-03-01 17:21:00,
2013-03-01 09:31:00,49.0,48.0,30.42,SSE,165,0.0,5.0,97,0.00,,,0.17,,2013-03-01 17:31:00,
2013-03-01 09:41:00,49.0,48.0,30.42,SSE,165,0.0,5.0,97,0.00,,,0.17,,2013-03-01 17:41:00,
2013-03-01 09:52:00,50.0,49.0,30.43,ENE,77,0.0,2.0,97,0.00,,,0.17,,2013-03-01 17:52:00,
2013-03-01 10:01:00,50.0,49.0,30.43,SW,222,0.0,0.0,97,0.00,,,0.17,,2013-03-01 18:01:00,
2013-03-01 10:12:00,50.0,49.0,30.43,SW,222,0.0,0.0,97,0.00,,,0.17,,2013-03-01 18:12:00,
2013-03-01 10:22:00,50.0,49.0,30.42,SW,224,0.0,2.0,98,0.00,,,0.17,,2013-03-01 18:22:00,
2013-03-01 10:31:00,50.0,49.0,30.42,East,91,0.0,8.0,98,0.00,,,0.14,,2013-03-01 18:31:00,
2013-03-01 10:41:00,50.0,49.0,30.42,East,91,0.0,8.0,98,0.00,,,0.14,,2013-03-01 18:41:00,
2013-03-01 10:52:00,50.0,49.0,30.43,SSE,148,1.0,4.0,97,0.00,,,0.14,,2013-03-01 18:52:00,
2013-03-01 11:01:00,51.0,50.0,30.42,North,11,0.0,5.0,97,0.00,,,0.14,,2013-03-01 19:01:00,
2013-03-01 11:11:00,51.0,50.0,30.42,North,11,0.0,5.0,97,0.00,,,0.14,,2013-03-01 19:11:00,
2013-03-01 11:21:00,51.0,50.0,30.42,NE,56,0.0,4.0,97,0.00,,,0.14,,2013-03-01 19:21:00,
2013-03-01 11:31:00,52.0,51.0,30.42,NE,40,0.0,3.0,97,0.00,,,0.13,,2013-03-01 19:31:00,
2013-03-01 11:41:00,52.0,51.0,30.42,NE,40,0.0,3.0,97,0.00,,,0.13,,2013-03-01 19:41:00,
2013-03-01 11:51:00,52.0,51.0,30.42,South,177,0.0,4.0,96,0.00,,,0.13,,2013-03-01 19:51:00,
2013-03-01 12:01:00,52.0,51.0,30.41,SE,135,0.0,5.0,95,0.00,,,0.13,,2013-03-01 20:01:00,
2013-03-01 12:11:00,52.0,51.0,30.41,SE,135,0.0,5.0,95,0.00,,,0.13,,2013-03-01 20:11:00,
2013-03-01 12:21:00,52.0,51.0,30.41,WSW,237,0.0,2.0,95,0.00,,,0.13,,2013-03-01 20:21:00,
2013-03-01 12:31:00,53.0,52.0,30.41,NNW,331,0.0,4.0,95,0.00,,,0.12,,2013-03-01 20:31:00,
2013-03-01 12:41:00,53.0,52.0,30.41,NNW,331,0.0,4.0,95,0.00,,,0.12,,2013-03-01 20:41:00,
2013-03-01 12:52:00,53.0,51.0,30.41,SW,219,0.0,3.0,94,0.00,,,0.12,,2013-03-01 20:52:00,
2013-03-01 13:01:00,53.0,51.0,30.41,SW,219,0.0,3.0,94,0.00,,,0.12,,2013-03-01 21:01:00,
2013-03-01 13:11:00,53.0,51.0,30.41,SW,219,0.0,3.0,94,0.00,,,0.12,,2013-03-01 21:11:00,
2013-03-01 13:21:00,53.0,51.0,30.39,West,271,0.0,4.0,94,0.00,,,0.12,,2013-03-01 21:21:00,
2013-03-01 13:31:00,54.0,52.0,30.39,West,275,0.0,6.0,92,0.00,,,0.12,,2013-03-01 21:31:00,
2013-03-01 13:41:00,54.0,52.0,30.39,West,275,0.0,6.0,92,0.00,,,0.12,,2013-03-01 21:41:00,
2013-03-01 13:51:00,54.0,52.0,30.38,NNW,341,0.0,5.0,93,0.00,,,0.12,,2013-03-01 21:51:00,
2013-03-01 14:01:00,54.0,51.0,30.38,West,275,0.0,7.0,90,0.00,,,0.12,,2013-03-01 22:01:00,
2013-03-01 14:11:00,54.0,51.0,30.38,West,275,0.0,7.0,90,0.00,,,0.12,,2013-03-01 22:11:00,
2013-03-01 14:21:00,54.0,51.0,30.38,WNW,285,0.0,6.0,90,0.00,,,0.12,,2013-03-01 22:21:00,
2013-03-01 14:31:00,54.0,51.0,30.38,SW,233,0.0,5.0,90,0.00,,,0.12,,2013-03-01 22:31:00,
2013-03-01 14:41:00,54.0,51.0,30.38,SW,233,0.0,5.0,90,0.00,,,0.12,,2013-03-01 22:41:00,
2013-03-01 14:51:00,54.0,51.0,30.37,NNE,31,0.0,4.0,91,0.00,,,0.12,,2013-03-01 22:51:00,
2013-03-01 15:01:00,55.0,52.0,30.37,NE,49,0.0,6.0,89,0.00,,,0.12,,2013-03-01 23:01:00,
2013-03-01 15:11:00,55.0,52.0,30.37,NE,49,0.0,6.0,89,0.00,,,0.12,,2013-03-01 23:11:00,
2013-03-01 15:21:00,55.0,52.0,30.37,SSE,150,1.0,4.0,88,0.00,,,0.12,,2013-03-01 23:21:00,
2013-03-01 15:31:00,55.0,52.0,30.36,NE,42,0.0,4.0,90,0.00,,,0.09,,2013-03-01 23:31:00,
2013-03-01 15:41:00,55.0,52.0,30.36,NE,42,0.0,4.0,90,0.00,,,0.09,,2013-03-01 23:41:00,
2013-03-01 15:52:00,55.0,52.0,30.36,ENE,65,0.0,3.0,89,0.00,,,0.09,,2013-03-01 23:52:00,
2013-03-01 16:01:00,55.0,52.0,30.35,SSW,208,0.0,4.0,88,0.00,,,0.09,,2013-03-02 00:01:00,
2013-03-01 16:11:00,55.0,52.0,30.35,SSW,208,0.0,4.0,88,0.00,,,0.09,,2013-03-02 00:11:00,
2013-03-01 16:21:00,55.0,52.0,30.35,SE,141,0.0,3.0,88,0.00,,,0.09,,2013-03-02 00:21:00,
2013-03-01 16:31:00,56.0,52.0,30.36,SW,231,0.0,5.0,86,0.00,,,0.07,,2013-03-02 00:31:00,
2013-03-01 16:41:00,56.0,52.0,30.36,SW,231,0.0,5.0,86,0.00,,,0.07,,2013-03-02 00:41:00,
2013-03-01 16:52:00,56.0,52.0,30.35,NE,43,0.0,2.0,87,0.00,,,0.07,,2013-03-02 00:52:00,
2013-03-01 17:01:00,55.0,51.0,30.35,North,357,0.0,0.0,87,0.00,,,0.07,,2013-03-02 01:01:00,
2013-03-01 17:11:00,55.0,51.0,30.35,North,357,0.0,0.0,87,0.00,,,0.07,,2013-03-02 01:11:00,
2013-03-01 17:21:00,55.0,51.0,30.35,ENE,68,0.0,2.0,87,0.00,,,0.07,,2013-03-02 01:21:00,
2013-03-01 17:31:00,54.0,51.0,30.35,South,172,0.0,3.0,88,0.00,,,0.07,,2013-03-02 01:31:00,
2013-03-01 17:41:00,54.0,51.0,30.35,South,172,0.0,3.0,88,0.00,,,0.07,,2013-03-02 01:41:00,
2013-03-01 17:51:00,54.0,51.0,30.35,SW,218,0.0,2.0,88,0.00,,,0.07,,2013-03-02 01:51:00,
2013-03-01 18:01:00,53.0,50.0,30.35,NE,44,0.0,1.0,89,0.00,,,0.07,,2013-03-02 02:01:00,
2013-03-01 18:11:00,53.0,50.0,30.35,NE,44,0.0,1.0,89,0.00,,,0.07,,2013-03-02 02:11:00,
2013-03-01 18:21:00,53.0,50.0,30.35,East,91,0.0,0.0,91,0.00,,,0.07,,2013-03-02 02:21:00,
2013-03-01 18:31:00,53.0,50.0,30.35,WSW,255,0.0,1.0,91,0.00,,,0.06,,2013-03-02 02:31:00,
2013-03-01 18:41:00,53.0,50.0,30.35,WSW,255,0.0,1.0,91,0.00,,,0.06,,2013-03-02 02:41:00,
2013-03-01 18:52:00,52.0,50.0,30.35,West,270,0.0,0.0,92,0.00,,,0.06,,2013-03-02 02:52:00,
2013-03-01 19:01:00,52.0,50.0,30.34,ESE,108,0.0,0.0,93,0.00,,,0.06,,2013-03-02 03:01:00,
2013-03-01 19:11:00,52.0,50.0,30.34,ESE,108,0.0,0.0,93,0.00,,,0.06,,2013-03-02 03:11:00,
2013-03-01 19:21:00,52.0,50.0,30.34,ESE,108,0.0,0.0,94,0.00,,,0.06,,2013-03-02 03:21:00,
2013-03-01 19:32:00,51.0,49.0,30.34,South,171,0.0,0.0,94,0.00,,,0.06,,2013-03-02 03:32:00,
2013-03-01 19:41:00,51.0,49.0,30.34,South,171,0.0,0.0,94,0.00,,,0.06,,2013-03-02 03:41:00,
2013-03-01 19:52:00,51.0,49.0,30.34,South,171,0.0,0.0,94,0.00,,,0.06,,2013-03-02 03:52:00,
2013-03-01 20:01:00,51.0,50.0,30.34,South,171,0.0,0.0,95,0.00,,,0.06,,2013-03-02 04:01:00,
2013-03-01 20:11:00,51.0,50.0,30.34,South,171,0.0,0.0,95,0.00,,,0.06,,2013-03-02 04:11:00,
2013-03-01 20:21:00,51.0,50.0,30.35,South,171,0.0,0.0,95,0.00,,,0.06,,2013-03-02 04:21:00,
2013-03-01 20:31:00,51.0,50.0,30.35,South,171,0.0,0.0,95,0.00,,,0.06,,2013-03-02 04:31:00,
2013-03-01 20:41:00,51.0,50.0,30.35,South,171,0.0,0.0,95,0.00,,,0.06,,2013-03-02 04:41:00,
2013-03-01 20:51:00,50.0,49.0,30.34,South,170,0.0,0.0,97,0.00,,,0.06,,2013-03-02 04:51:00,
2013-03-01 21:01:00,50.0,49.0,30.34,South,169,0.0,0.0,97,0.00,,,0.06,,2013-03-02 05:01:00,
2013-03-01 21:12:00,50.0,49.0,30.34,South,169,0.0,0.0,97,0.00,,,0.06,,2013-03-02 05:12:00,
2013-03-01 21:22:00,50.0,49.0,30.34,SSE,148,0.0,0.0,97,0.00,,,0.06,,2013-03-02 05:22:00,
2013-03-01 21:31:00,50.0,49.0,30.34,SSE,148,0.0,0.0,97,0.00,,,0.06,,2013-03-02 05:31:00,
2013-03-01 21:41:00,50.0,49.0,30.34,SSE,148,0.0,0.0,97,0.00,,,0.06,,2013-03-02 05:41:00,
2013-03-01 22:01:00,49.0,48.0,30.34,SSE,152,0.0,0.0,98,0.00,,,0.06,,2013-03-02 06:01:00,
2013-03-01 22:11:00,49.0,48.0,30.34,SSE,152,0.0,0.0,98,0.00,,,0.06,,2013-03-02 06:11:00,
2013-03-01 22:21:00,49.0,48.0,30.34,SSE,152,0.0,0.0,98,0.00,,,0.06,,2013-03-02 06:21:00,
2013-03-01 22:31:00,49.0,48.0,30.33,SSE,152,0.0,0.0,98,0.00,,,0.06,,2013-03-02 06:31:00,
2013-03-01 22:41:00,49.0,48.0,30.33,SSE,152,0.0,0.0,98,0.00,,,0.06,,2013-03-02 06:41:00,
2013-03-01 22:51:00,48.0,47.0,30.33,SSE,153,0.0,0.0,98,0.00,,,0.06,,2013-03-02 06:51:00,
2013-03-01 23:01:00,48.0,47.0,30.33,SSE,153,0.0,0.0,98,0.00,,,0.06,,2013-03-02 07:01:00,
2013-03-01 23:11:00,48.0,47.0,30.33,SSE,153,0.0,0.0,98,0.00,,,0.06,,2013-03-02 07:11:00,
2013-03-01 23:21:00,48.0,47.0,30.33,SSE,153,0.0,0.0,98,0.00,,,0.06,,2013-03-02 07:21:00,
2013-03-01 23:32:00,48.0,47.0,30.33,SSE,153,0.0,0.0,97,0.00,,,0.06,,2013-03-02 07:32:00,
2013-03-01 23:42:00,48.0,47.0,30.33,SSE,153,0.0,0.0,97,0.00,,,0.06,,2013-03-02 07:42:00,
2013-03-01 23:51:00,48.0,47.0,30.32,SSE,153,0.0,0.0,97,0.00,,,0.06,,2013-03-02 07:51:00,